| time (UTC) | temp F | wind direction | speed MPH | gust MPH | rain 1hr in | rain 24hr in | rain mn in | humidity % | barometer mb |
| 20260902095328 | 81 | 224 | 2.0 | 7.0 | 0.00 | 0.00 | 0.00 | 90 | 1013.8 |
| 20260902094840 | 81 | 248 | 2.0 | 7.0 | 0.00 | 0.00 | 0.00 | 90 | 1013.8 |
| 20260902094333 | 81 | 235 | 1.0 | 6.0 | 0.00 | 0.00 | 0.00 | 89 | 1013.8 |
| 20260902093825 | 81 | 279 | 3.0 | 9.0 | 0.00 | 0.00 | 0.00 | 89 | 1013.8 |
| 20260902093340 | 81 | 272 | 4.0 | 9.0 | 0.00 | 0.00 | 0.00 | 89 | 1013.8 |
| 20260902092831 | 81 | 220 | 4.0 | 9.0 | 0.00 | 0.00 | 0.00 | 89 | 1013.8 |
| 20260902092348 | 81 | 214 | 3.0 | 11.0 | 0.00 | 0.00 | 0.00 | 89 | 1013.8 |
| 20260902091838 | 81 | 188 | 2.0 | 11.0 | 0.00 | 0.00 | 0.00 | 88 | 1013.8 |
| 20260902091350 | 81 | 202 | 2.0 | 10.0 | 0.00 | 0.00 | 0.00 | 88 | 1013.8 |
| 20260902090843 | 81 | 234 | 5.0 | 10.0 | 0.00 | 0.00 | 0.00 | 88 | 1013.8 |
| 20260902090338 | 81 | 203 | 3.0 | 5.0 | 0.00 | 0.00 | 0.00 | 88 | 1013.8 |
| 20260902085829 | 81 | 197 | 3.0 | 8.0 | 0.00 | 0.00 | 0.00 | 87 | 1013.8 |
| 20260902085321 | 81 | 225 | 2.0 | 8.0 | 0.00 | 0.00 | 0.00 | 87 | 1013.8 |
| 20260902084838 | 81 | 323 | 3.0 | 9.0 | 0.00 | 0.00 | 0.00 | 87 | 1013.8 |
| 20260902084330 | 81 | 265 | 4.0 | 9.0 | 0.00 | 0.00 | 0.00 | 86 | 1013.8 |
| 20260902083823 | 81 | 205 | 3.0 | 7.0 | 0.00 | 0.00 | 0.00 | 86 | 1013.8 |
| 20260902083339 | 81 | 214 | 3.0 | 7.0 | 0.00 | 0.00 | 0.00 | 86 | 1013.8 |
| 20260902082831 | 81 | 220 | 2.0 | 6.0 | 0.00 | 0.00 | 0.00 | 85 | 1013.8 |
| 20260902082328 | 81 | 284 | 2.0 | 5.0 | 0.00 | 0.00 | 0.00 | 85 | 1013.8 |
| 20260902081838 | 81 | 238 | 1.0 | 5.0 | 0.00 | 0.00 | 0.00 | 84 | 1013.8 |
| 20260902081331 | 81 | 252 | 2.0 | 5.0 | 0.00 | 0.00 | 0.00 | 84 | 1013.8 |
| 20260902080845 | 81 | 217 | 2.0 | 4.0 | 0.00 | 0.00 | 0.00 | 84 | 1013.8 |
| 20260902080401 | 81 | 242 | 1.0 | 6.0 | 0.00 | 0.00 | 0.00 | 84 | 1013.8 |
| 20260902075831 | 81 | 258 | 0.0 | 6.0 | 0.00 | 0.00 | 0.00 | 84 | 1013.9 |
| 20260902075322 | 80 | 221 | 1.0 | 4.0 | 0.00 | 0.00 | 0.00 | 83 | 1013.9 |
| 20260902074835 | 80 | 253 | 2.0 | 4.0 | 0.00 | 0.00 | 0.00 | 83 | 1013.9 |
| 20260902074328 | 80 | 295 | 1.0 | 4.0 | 0.00 | 0.00 | 0.00 | 83 | 1013.9 |
| 20260902073824 | 80 | 243 | 1.0 | 4.0 | 0.00 | 0.00 | 0.00 | 83 | 1013.9 |
| 20260902073335 | 80 | 279 | 2.0 | 3.0 | 0.00 | 0.00 | 0.00 | 83 | 1013.9 |
| 20260902072848 | 80 | 250 | 0.0 | 2.0 | 0.00 | 0.00 | 0.00 | 83 | 1014.1 |
| 20260902072339 | 80 | 250 | 0.0 | 0.0 | 0.00 | 0.00 | 0.00 | 83 | 1014.1 |
| 20260902071834 | 80 | 214 | 0.0 | 0.0 | 0.00 | 0.00 | 0.00 | 83 | 1014.1 |
| 20260902071347 | 80 | 214 | 0.0 | 0.0 | 0.00 | 0.00 | 0.00 | 83 | 1014.1 |
| 20260902070838 | 80 | 298 | 0.0 | 2.0 | 0.00 | 0.00 | 0.00 | 83 | 1014.1 |
| 20260902070331 | 80 | 277 | 0.0 | 2.0 | 0.00 | 0.00 | 0.00 | 84 | 1014.1 |
| 20260902065839 | 80 | 319 | 0.0 | 0.0 | 0.00 | 0.00 | 0.00 | 84 | 1014.1 |
| 20260902065334 | 80 | 319 | 0.0 | 0.0 | 0.00 | 0.00 | 0.00 | 83 | 1014.1 |
| 20260902064822 | 80 | 319 | 0.0 | 0.0 | 0.00 | 0.00 | 0.00 | 84 | 1014.1 |
| 20260902064337 | 80 | 319 | 0.0 | 0.0 | 0.00 | 0.00 | 0.00 | 84 | 1014.0 |
| 20260902063829 | 80 | 319 | 0.0 | 0.0 | 0.00 | 0.00 | 0.00 | 83 | 1014.0 |
| 20260902063343 | 80 | 319 | 0.0 | 0.0 | 0.00 | 0.00 | 0.00 | 83 | 1014.0 |
| 20260902062835 | 80 | 319 | 0.0 | 0.0 | 0.00 | 0.00 | 0.00 | 83 | 1013.8 |
| 20260902062325 | 80 | 319 | 0.0 | 0.0 | 0.00 | 0.00 | 0.00 | 83 | 1013.8 |
| 20260902061837 | 80 | 319 | 0.0 | 0.0 | 0.00 | 0.00 | 0.00 | 83 | 1013.8 |
| 20260902061329 | 80 | 319 | 0.0 | 1.0 | 0.00 | 0.00 | 0.00 | 83 | 1013.8 |
| 20260902060824 | 80 | 319 | 0.0 | 1.0 | 0.00 | 0.00 | 0.00 | 83 | 1013.8 |
| 20260902060337 | 80 | 264 | 0.0 | 3.0 | 0.00 | 0.00 | 0.00 | 83 | 1013.8 |
| 20260902055848 | 80 | 264 | 1.0 | 3.0 | 0.00 | 0.00 | 0.00 | 83 | 1013.8 |
| 20260902055322 | 80 | 261 | 0.0 | 0.0 | 0.00 | 0.00 | 0.00 | 83 | 1013.8 |
| 20260902054836 | 81 | 261 | 0.0 | 1.0 | 0.00 | 0.00 | 0.00 | 83 | 1013.8 |
| 20260902054347 | 81 | 261 | 0.0 | 2.0 | 0.00 | 0.00 | 0.00 | 83 | 1013.8 |
| 20260902053905 | 81 | 243 | 1.0 | 3.0 | 0.00 | 0.00 | 0.00 | 83 | 1013.8 |
| 20260902053335 | 81 | 298 | 1.0 | 3.0 | 0.00 | 0.00 | 0.00 | 83 | 1013.8 |
| 20260902052843 | 81 | 309 | 0.0 | 3.0 | 0.00 | 0.00 | 0.00 | 83 | 1013.9 |
| 20260902052338 | 81 | 339 | 0.0 | 2.0 | 0.00 | 0.00 | 0.00 | 83 | 1013.9 |
| 20260902051830 | 81 | 284 | 0.0 | 2.0 | 0.00 | 0.00 | 0.00 | 83 | 1013.9 |
| 20260902051325 | 81 | 289 | 0.0 | 4.0 | 0.00 | 0.00 | 0.00 | 83 | 1014.1 |
| 20260902050939 | 81 | 258 | 1.0 | 4.0 | 0.00 | 0.00 | 0.00 | 83 | 1014.1 |
| 20260902050338 | 81 | 213 | 1.0 | 3.0 | 0.00 | 0.00 | 0.00 | 83 | 1014.1 |
| 20260902045824 | 81 | 227 | 1.0 | 3.0 | 0.00 | 0.00 | 0.00 | 83 | 1014.1 |
| 20260902045337 | 81 | 254 | 2.0 | 4.0 | 0.00 | 0.00 | 0.00 | 84 | 1014.1 |
| 20260902044831 | 81 | 246 | 2.0 | 4.0 | 0.00 | 0.00 | 0.00 | 84 | 1014.1 |
| 20260902044324 | 80 | 236 | 1.0 | 4.0 | 0.00 | 0.00 | 0.00 | 84 | 1014.3 |
| 20260902043837 | 80 | 220 | 1.0 | 4.0 | 0.00 | 0.00 | 0.00 | 85 | 1014.3 |
| 20260902043328 | 80 | 253 | 1.0 | 2.0 | 0.00 | 0.00 | 0.00 | 84 | 1014.3 |
| 20260902042842 | 80 | 307 | 0.0 | 0.0 | 0.00 | 0.00 | 0.00 | 84 | 1014.3 |
| 20260902042356 | 80 | 307 | 0.0 | 0.0 | 0.00 | 0.00 | 0.00 | 84 | 1014.3 |
| 20260902041832 | 80 | 307 | 0.0 | 0.0 | 0.00 | 0.00 | 0.00 | 84 | 1014.3 |
| 20260902041325 | 80 | 307 | 0.0 | 0.0 | 0.00 | 0.00 | 0.00 | 84 | 1014.3 |
| 20260902040834 | 80 | 307 | 0.0 | 0.0 | 0.00 | 0.00 | 0.00 | 84 | 1014.3 |
| 20260902040326 | 80 | 307 | 0.0 | 0.0 | 0.00 | 0.00 | 0.00 | 84 | 1014.3 |
| 20260902035840 | 80 | 307 | 0.0 | 0.0 | 0.00 | 0.00 | 0.00 | 84 | 1014.3 |
| 20260902035334 | 80 | 307 | 0.0 | 0.0 | 0.00 | 0.00 | 0.00 | 84 | 1014.3 |
| 20260902034848 | 80 | 307 | 0.0 | 0.0 | 0.00 | 0.00 | 0.00 | 84 | 1014.3 |
| 20260902034321 | 80 | 307 | 0.0 | 0.0 | 0.00 | 0.00 | 0.00 | 84 | 1014.3 |
| 20260902033833 | 80 | 307 | 0.0 | 0.0 | 0.00 | 0.00 | 0.00 | 84 | 1014.3 |
| 20260902033324 | 81 | 307 | 0.0 | 0.0 | 0.00 | 0.00 | 0.00 | 84 | 1014.3 |
| 20260902032819 | 81 | 307 | 0.0 | 0.0 | 0.00 | 0.00 | 0.00 | 83 | 1014.3 |
| 20260902032337 | 81 | 307 | 0.0 | 0.0 | 0.00 | 0.00 | 0.00 | 83 | 1014.3 |
| 20260902031846 | 81 | 307 | 0.0 | 0.0 | 0.00 | 0.00 | 0.00 | 83 | 1014.3 |
| 20260902031337 | 81 | 307 | 0.0 | 0.0 | 0.00 | 0.00 | 0.00 | 83 | 1014.1 |
| 20260902030832 | 81 | 307 | 0.0 | 0.0 | 0.00 | 0.00 | 0.00 | 83 | 1014.1 |
| 20260902030323 | 81 | 307 | 0.0 | 0.0 | 0.00 | 0.00 | 0.00 | 83 | 1014.1 |
| 20260902025837 | 81 | 307 | 0.0 | 0.0 | 0.00 | 0.00 | 0.00 | 82 | 1014.0 |
| 20260902025328 | 81 | 307 | 0.0 | 0.0 | 0.00 | 0.00 | 0.00 | 82 | 1014.0 |
| 20260902024823 | 81 | 307 | 0.0 | 0.0 | 0.00 | 0.00 | 0.00 | 82 | 1014.0 |
| 20260902024334 | 81 | 307 | 0.0 | 0.0 | 0.00 | 0.00 | 0.00 | 82 | 1013.8 |
| 20260902023848 | 81 | 307 | 0.0 | 0.0 | 0.00 | 0.00 | 0.00 | 82 | 1013.8 |
| 20260902023342 | 81 | 307 | 0.0 | 0.0 | 0.00 | 0.00 | 0.00 | 82 | 1013.8 |
| 20260902022833 | 81 | 307 | 0.0 | 0.0 | 0.00 | 0.00 | 0.00 | 82 | 1013.4 |
| 20260902022345 | 81 | 307 | 0.0 | 2.0 | 0.00 | 0.00 | 0.00 | 82 | 1013.4 |
| 20260902021838 | 81 | 307 | 0.0 | 2.0 | 0.00 | 0.00 | 0.00 | 82 | 1013.4 |
| 20260902021348 | 81 | 326 | 1.0 | 2.0 | 0.00 | 0.00 | 0.00 | 82 | 1013.4 |
| 20260902020822 | 81 | 326 | 0.0 | 1.0 | 0.00 | 0.00 | 0.00 | 82 | 1013.4 |
| 20260902020338 | 81 | 326 | 0.0 | 0.0 | 0.00 | 0.00 | 0.00 | 82 | 1013.4 |
| 20260902015828 | 81 | 326 | 0.0 | 0.0 | 0.00 | 0.00 | 0.00 | 82 | 1013.1 |
| 20260902015342 | 81 | 326 | 0.0 | 1.0 | 0.00 | 0.00 | 0.00 | 82 | 1013.1 |
| 20260902014833 | 81 | 326 | 0.0 | 1.0 | 0.00 | 0.00 | 0.00 | 82 | 1013.1 |
| 20260902014346 | 82 | 326 | 0.0 | 1.0 | 0.00 | 0.00 | 0.00 | 82 | 1012.8 |
| 20260902013835 | 82 | 326 | 0.0 | 0.0 | 0.00 | 0.00 | 0.00 | 82 | 1012.8 |
| 20260902013328 | 82 | 326 | 0.0 | 0.0 | 0.00 | 0.00 | 0.00 | 82 | 1012.8 |
| 20260902012840 | 82 | 326 | 0.0 | 0.0 | 0.00 | 0.00 | 0.00 | 81 | 1012.8 |
| 20260902012334 | 82 | 326 | 0.0 | 0.0 | 0.00 | 0.00 | 0.00 | 81 | 1012.8 |
| 20260902011829 | 82 | 326 | 0.0 | 0.0 | 0.00 | 0.00 | 0.00 | 81 | 1012.8 |
| 20260902011325 | 82 | 326 | 0.0 | 0.0 | 0.00 | 0.00 | 0.00 | 81 | 1013.0 |
| 20260902010839 | 82 | 326 | 0.0 | 1.0 | 0.00 | 0.00 | 0.00 | 81 | 1013.0 |
| 20260902010332 | 82 | 326 | 0.0 | 3.0 | 0.00 | 0.00 | 0.00 | 80 | 1013.0 |
| 20260902005842 | 82 | 326 | 0.0 | 3.0 | 0.00 | 0.00 | 0.00 | 80 | 1012.9 |
| 20260902005356 | 82 | 57 | 0.0 | 0.0 | 0.00 | 0.00 | 0.00 | 80 | 1012.9 |
| 20260902004828 | 82 | 57 | 0.0 | 1.0 | 0.00 | 0.00 | 0.00 | 81 | 1012.9 |
| 20260902004323 | 82 | 57 | 1.0 | 1.0 | 0.00 | 0.00 | 0.00 | 80 | 1013.3 |
| 20260902003836 | 82 | 57 | 0.0 | 1.0 | 0.00 | 0.00 | 0.00 | 81 | 1013.3 |
| 20260902003333 | 82 | 57 | 0.0 | 1.0 | 0.00 | 0.00 | 0.00 | 81 | 1013.3 |
| 20260902002827 | 82 | 57 | 0.0 | 2.0 | 0.00 | 0.00 | 0.00 | 81 | 1013.2 |
| 20260902002318 | 82 | 57 | 0.0 | 2.0 | 0.00 | 0.00 | 0.00 | 81 | 1013.2 |
| 20260902001837 | 82 | 75 | 1.0 | 2.0 | 0.00 | 0.00 | 0.00 | 81 | 1013.2 |
| 20260902001328 | 82 | 75 | 0.0 | 1.0 | 0.00 | 0.00 | 0.00 | 81 | 1012.8 |
| 20260902000841 | 82 | 90 | 0.0 | 1.0 | 0.00 | 0.00 | 0.00 | 81 | 1012.8 |
| 20260902000333 | 82 | 294 | 0.0 | 2.0 | 0.00 | 0.00 | 0.00 | 81 | 1012.8 |
| 20260901235823 | 82 | 294 | 0.0 | 2.0 | 0.00 | 0.00 | 0.00 | 81 | 1013.0 |
| 20260901235339 | 82 | 48 | 0.0 | 5.0 | 0.00 | 0.00 | 0.00 | 82 | 1013.0 |
| 20260901234830 | 82 | 78 | 0.0 | 5.0 | 0.00 | 0.00 | 0.00 | 82 | 1013.0 |
| 20260901234324 | 82 | 55 | 1.0 | 5.0 | 0.00 | 0.00 | 0.00 | 82 | 1013.3 |
| 20260901233836 | 82 | 269 | 3.0 | 5.0 | 0.00 | 0.00 | 0.00 | 82 | 1013.3 |
| 20260901233330 | 82 | 68 | 2.0 | 5.0 | 0.00 | 0.00 | 0.00 | 82 | 1013.3 |
| 20260901232842 | 82 | 74 | 0.0 | 4.0 | 0.00 | 0.00 | 0.00 | 82 | 1013.3 |
| 20260901232355 | 82 | 70 | 1.0 | 3.0 | 0.00 | 0.00 | 0.00 | 81 | 1013.3 |
| 20260901231844 | 82 | 118 | 1.0 | 3.0 | 0.00 | 0.00 | 0.00 | 81 | 1013.3 |
| 20260901231334 | 82 | 33 | 1.0 | 3.0 | 0.00 | 0.00 | 0.00 | 80 | 1013.5 |
| 20260901230826 | 82 | 43 | 2.0 | 4.0 | 0.00 | 0.00 | 0.00 | 80 | 1013.5 |
| 20260901230340 | 83 | 65 | 1.0 | 8.0 | 0.00 | 0.00 | 0.00 | 79 | 1013.5 |
| 20260901225852 | 83 | 9 | 1.0 | 8.0 | 0.00 | 0.00 | 0.00 | 78 | 1013.7 |
| 20260901225323 | 85 | 74 | 3.0 | 9.0 | 0.00 | 0.00 | 0.00 | 75 | 1013.7 |
| 20260901224837 | 85 | 276 | 4.0 | 10.0 | 0.00 | 0.00 | 0.00 | 73 | 1013.7 |
| 20260901224328 | 86 | 50 | 4.0 | 10.0 | 0.00 | 0.00 | 0.00 | 75 | 1013.8 |
| 20260901223822 | 87 | 21 | 3.0 | 10.0 | 0.00 | 0.00 | 0.00 | 74 | 1013.8 |
| 20260901223340 | 88 | 65 | 2.0 | 16.0 | 0.00 | 0.00 | 0.00 | 73 | 1013.8 |
| 20260901222832 | 89 | 125 | 8.0 | 16.0 | 0.00 | 0.00 | 0.00 | 70 | 1013.3 |
| 20260901222326 | 91 | 84 | 4.0 | 9.0 | 0.00 | 0.00 | 0.00 | 63 | 1013.3 |
| 20260901221839 | 91 | 29 | 2.0 | 5.0 | 0.00 | 0.00 | 0.00 | 63 | 1013.3 |
| 20260901221333 | 91 | 11 | 1.0 | 4.0 | 0.00 | 0.00 | 0.00 | 66 | 1013.3 |
| 20260901220825 | 91 | 88 | 1.0 | 4.0 | 0.00 | 0.00 | 0.00 | 66 | 1013.3 |
| 20260901220337 | 91 | 75 | 1.0 | 4.0 | 0.00 | 0.00 | 0.00 | 67 | 1013.3 |
| 20260901215849 | 91 | 42 | 0.0 | 2.0 | 0.00 | 0.00 | 0.00 | 67 | 1013.4 |
| 20260901215319 | 90 | 102 | 0.0 | 3.0 | 0.00 | 0.00 | 0.00 | 67 | 1013.4 |
| 20260901214831 | 90 | 73 | 1.0 | 3.0 | 0.00 | 0.00 | 0.00 | 68 | 1013.4 |
| 20260901214324 | 90 | 329 | 0.0 | 2.0 | 0.00 | 0.00 | 0.00 | 68 | 1013.6 |
| 20260901213837 | 90 | 324 | 1.0 | 3.0 | 0.00 | 0.00 | 0.00 | 67 | 1013.6 |
| 20260901213327 | 90 | 11 | 2.0 | 2.0 | 0.00 | 0.00 | 0.00 | 67 | 1013.6 |
| 20260901212840 | 90 | 55 | 0.0 | 3.0 | 0.00 | 0.00 | 0.00 | 68 | 1013.7 |
| 20260901212332 | 89 | 291 | 0.0 | 3.0 | 0.00 | 0.00 | 0.00 | 68 | 1013.7 |
| 20260901211824 | 90 | 55 | 1.0 | 3.0 | 0.00 | 0.00 | 0.00 | 68 | 1013.7 |
| 20260901211338 | 89 | 310 | 1.0 | 3.0 | 0.00 | 0.00 | 0.00 | 68 | 1013.5 |
| 20260901210830 | 90 | 359 | 0.0 | 3.0 | 0.00 | 0.00 | 0.00 | 68 | 1013.5 |
| 20260901210322 | 90 | 353 | 0.0 | 3.0 | 0.00 | 0.00 | 0.00 | 68 | 1013.5 |
| 20260901205859 | 89 | 300 | 1.0 | 3.0 | 0.00 | 0.00 | 0.00 | 68 | 1013.4 |
| 20260901205350 | 89 | 343 | 2.0 | 3.0 | 0.00 | 0.00 | 0.00 | 68 | 1013.4 |
| 20260901204825 | 89 | 350 | 1.0 | 10.0 | 0.00 | 0.00 | 0.00 | 68 | 1013.4 |
| 20260901204339 | 89 | 343 | 2.0 | 10.0 | 0.00 | 0.00 | 0.00 | 69 | 1013.7 |
| 20260901203851 | 89 | 7 | 3.0 | 6.0 | 0.00 | 0.00 | 0.00 | 68 | 1013.7 |
| 20260901203343 | 89 | 357 | 1.0 | 5.0 | 0.00 | 0.00 | 0.00 | 69 | 1013.7 |
| 20260901202833 | 89 | 250 | 1.0 | 5.0 | 0.00 | 0.00 | 0.00 | 69 | 1014.1 |
| 20260901202347 | 89 | 336 | 2.0 | 4.0 | 0.00 | 0.00 | 0.00 | 71 | 1014.1 |
| 20260901201838 | 88 | 198 | 2.0 | 4.0 | 0.00 | 0.00 | 0.00 | 72 | 1014.1 |
| 20260901201331 | 88 | 308 | 0.0 | 2.0 | 0.00 | 0.00 | 0.00 | 72 | 1014.7 |
| 20260901200858 | 88 | 308 | 0.0 | 3.0 | 0.00 | 0.00 | 0.00 | 73 | 1014.7 |
| 20260901200328 | 88 | 308 | 1.0 | 3.0 | 0.00 | 0.00 | 0.00 | 73 | 1014.7 |
| 20260901195838 | 88 | 89 | 0.0 | 4.0 | 0.00 | 0.00 | 0.00 | 73 | 1014.9 |
| 20260901195330 | 88 | 66 | 2.0 | 4.0 | 0.00 | 0.00 | 0.00 | 73 | 1014.9 |
| 20260901194840 | 88 | 104 | 1.0 | 2.0 | 0.00 | 0.00 | 0.00 | 74 | 1014.9 |
| 20260901194352 | 88 | 11 | 0.0 | 3.0 | 0.00 | 0.00 | 0.00 | 72 | 1015.0 |
| 20260901193842 | 88 | 113 | 1.0 | 3.0 | 0.00 | 0.00 | 0.00 | 72 | 1015.0 |
| 20260901193335 | 88 | 9 | 0.0 | 4.0 | 0.00 | 0.00 | 0.00 | 71 | 1015.0 |
| 20260901192826 | 88 | 8 | 0.0 | 4.0 | 0.00 | 0.00 | 0.00 | 72 | 1014.9 |
| 20260901192339 | 88 | 6 | 1.0 | 3.0 | 0.00 | 0.00 | 0.00 | 72 | 1014.9 |
| 20260901191832 | 88 | 59 | 1.0 | 3.0 | 0.00 | 0.00 | 0.00 | 72 | 1014.9 |
| 20260901191345 | 88 | 78 | 1.0 | 4.0 | 0.00 | 0.00 | 0.00 | 72 | 1014.9 |
| 20260901190858 | 88 | 63 | 1.0 | 4.0 | 0.00 | 0.00 | 0.00 | 71 | 1014.9 |
| 20260901190329 | 88 | 51 | 2.0 | 4.0 | 0.00 | 0.00 | 0.00 | 71 | 1014.9 |
| 20260901185838 | 88 | 358 | 2.0 | 4.0 | 0.00 | 0.00 | 0.00 | 71 | 1014.9 |
| 20260901185329 | 88 | 327 | 2.0 | 4.0 | 0.00 | 0.00 | 0.00 | 71 | 1014.9 |
| 20260901184841 | 88 | 333 | 1.0 | 4.0 | 0.00 | 0.00 | 0.00 | 72 | 1014.9 |
| 20260901184331 | 89 | 55 | 1.0 | 4.0 | 0.00 | 0.00 | 0.00 | 71 | 1015.1 |
| 20260901183823 | 89 | 86 | 0.0 | 3.0 | 0.00 | 0.00 | 0.00 | 71 | 1015.1 |
| 20260901183337 | 88 | 86 | 0.0 | 4.0 | 0.00 | 0.00 | 0.00 | 71 | 1015.1 |
| 20260901182830 | 88 | 312 | 1.0 | 4.0 | 0.00 | 0.00 | 0.00 | 71 | 1015.4 |
| 20260901182323 | 89 | 329 | 2.0 | 4.0 | 0.00 | 0.00 | 0.00 | 71 | 1015.4 |
| 20260901181832 | 89 | 30 | 2.0 | 5.0 | 0.00 | 0.00 | 0.00 | 71 | 1015.4 |
| 20260901181324 | 89 | 305 | 0.0 | 9.0 | 0.00 | 0.00 | 0.00 | 71 | 1015.5 |
| 20260901180835 | 88 | 345 | 3.0 | 9.0 | 0.00 | 0.00 | 0.00 | 71 | 1015.5 |
| 20260901180331 | 88 | 281 | 2.0 | 4.0 | 0.00 | 0.00 | 0.00 | 73 | 1015.5 |
| 20260901175843 | 88 | 11 | 1.0 | 4.0 | 0.00 | 0.00 | 0.00 | 72 | 1015.8 |
| 20260901175358 | 88 | 21 | 2.0 | 5.0 | 0.00 | 0.00 | 0.00 | 71 | 1015.8 |
| 20260901174827 | 88 | 85 | 2.0 | 5.0 | 0.00 | 0.00 | 0.00 | 72 | 1015.8 |
| 20260901174339 | 88 | 340 | 1.0 | 4.0 | 0.00 | 0.00 | 0.00 | 73 | 1016.1 |
| 20260901173830 | 88 | 11 | 2.0 | 6.0 | 0.00 | 0.00 | 0.00 | 74 | 1016.1 |
| 20260901173323 | 87 | 89 | 2.0 | 6.0 | 0.00 | 0.00 | 0.00 | 73 | 1016.1 |
| 20260901172834 | 87 | 75 | 3.0 | 6.0 | 0.00 | 0.00 | 0.00 | 74 | 1016.4 |
| 20260901172348 | 87 | 359 | 1.0 | 5.0 | 0.00 | 0.00 | 0.00 | 75 | 1016.4 |
| 20260901171819 | 87 | 341 | 2.0 | 5.0 | 0.00 | 0.00 | 0.00 | 75 | 1016.4 |
| 20260901171335 | 87 | 57 | 2.0 | 4.0 | 0.00 | 0.00 | 0.00 | 75 | 1016.6 |
| 20260901170825 | 87 | 41 | 2.0 | 4.0 | 0.00 | 0.00 | 0.00 | 76 | 1016.6 |
| 20260901170338 | 87 | 323 | 2.0 | 5.0 | 0.00 | 0.00 | 0.00 | 75 | 1016.6 |
| 20260901165832 | 87 | 271 | 1.0 | 5.0 | 0.00 | 0.00 | 0.00 | 75 | 1016.8 |
| 20260901165345 | 87 | 329 | 1.0 | 4.0 | 0.00 | 0.00 | 0.00 | 74 | 1016.8 |
| 20260901164837 | 87 | 56 | 1.0 | 4.0 | 0.00 | 0.00 | 0.00 | 74 | 1016.8 |
| 20260901164329 | 87 | 82 | 0.0 | 4.0 | 0.00 | 0.00 | 0.00 | 74 | 1016.7 |
| 20260901163843 | 87 | 51 | 1.0 | 4.0 | 0.00 | 0.00 | 0.00 | 75 | 1016.7 |
| 20260901163331 | 86 | 265 | 1.0 | 3.0 | 0.00 | 0.00 | 0.00 | 75 | 1016.7 |
| 20260901162823 | 86 | 314 | 1.0 | 3.0 | 0.00 | 0.00 | 0.00 | 75 | 1016.7 |
| 20260901162340 | 86 | 75 | 1.0 | 3.0 | 0.00 | 0.00 | 0.00 | 76 | 1016.7 |
| 20260901161834 | 86 | 24 | 1.0 | 5.0 | 0.00 | 0.00 | 0.00 | 75 | 1016.7 |
| 20260901161325 | 86 | 15 | 0.0 | 5.0 | 0.00 | 0.00 | 0.00 | 76 | 1016.4 |
| 20260901160837 | 86 | 317 | 2.0 | 5.0 | 0.00 | 0.00 | 0.00 | 76 | 1016.4 |
| 20260901160327 | 86 | 37 | 0.0 | 4.0 | 0.00 | 0.00 | 0.00 | 78 | 1016.4 |
| 20260901155837 | 86 | 321 | 1.0 | 4.0 | 0.00 | 0.00 | 0.00 | 78 | 1016.4 |
| 20260901155329 | 85 | 260 | 1.0 | 6.0 | 0.00 | 0.00 | 0.00 | 78 | 1016.4 |
| 20260901154842 | 85 | 273 | 4.0 | 6.0 | 0.00 | 0.00 | 0.00 | 78 | 1016.4 |
| 20260901154355 | 85 | 350 | 3.0 | 6.0 | 0.00 | 0.00 | 0.00 | 78 | 1016.5 |
| 20260901153824 | 85 | 355 | 2.0 | 4.0 | 0.00 | 0.00 | 0.00 | 78 | 1016.5 |
| 20260901153337 | 85 | 358 | 2.0 | 7.0 | 0.00 | 0.00 | 0.00 | 78 | 1016.5 |
| 20260901152830 | 85 | 293 | 2.0 | 7.0 | 0.00 | 0.00 | 0.00 | 78 | 1016.4 |
| 20260901152323 | 85 | 63 | 1.0 | 5.0 | 0.00 | 0.00 | 0.00 | 78 | 1016.4 |
| 20260901151837 | 85 | 318 | 2.0 | 6.0 | 0.00 | 0.00 | 0.00 | 79 | 1016.4 |
| 20260901151329 | 85 | 59 | 3.0 | 6.0 | 0.00 | 0.00 | 0.00 | 78 | 1016.5 |
| 20260901150841 | 85 | 61 | 1.0 | 5.0 | 0.00 | 0.00 | 0.00 | 79 | 1016.5 |
| 20260901150334 | 85 | 112 | 2.0 | 5.0 | 0.00 | 0.00 | 0.00 | 79 | 1016.5 |
| 20260901145826 | 85 | 359 | 0.0 | 5.0 | 0.00 | 0.00 | 0.00 | 80 | 1016.4 |
| 20260901145320 | 85 | 23 | 1.0 | 5.0 | 0.00 | 0.00 | 0.00 | 80 | 1016.4 |
| 20260901144833 | 85 | 98 | 3.0 | 5.0 | 0.00 | 0.00 | 0.00 | 80 | 1016.4 |
| 20260901144348 | 84 | 11 | 2.0 | 4.0 | 0.00 | 0.00 | 0.00 | 81 | 1016.5 |
| 20260901143835 | 84 | 61 | 1.0 | 5.0 | 0.00 | 0.00 | 0.00 | 81 | 1016.5 |
| 20260901143328 | 84 | 4 | 3.0 | 5.0 | 0.00 | 0.00 | 0.00 | 81 | 1016.5 |
| 20260901142843 | 84 | 10 | 0.0 | 6.0 | 0.00 | 0.00 | 0.00 | 82 | 1016.5 |
| 20260901142334 | 84 | 343 | 2.0 | 6.0 | 0.00 | 0.00 | 0.00 | 82 | 1016.5 |
| 20260901141846 | 83 | 48 | 1.0 | 5.0 | 0.00 | 0.00 | 0.00 | 84 | 1016.5 |
| 20260901141359 | 83 | 343 | 2.0 | 4.0 | 0.00 | 0.00 | 0.00 | 86 | 1016.5 |
| 20260901140852 | 82 | 47 | 1.0 | 2.0 | 0.00 | 0.00 | 0.00 | 87 | 1016.5 |
| 20260901140325 | 81 | 338 | 0.0 | 2.0 | 0.00 | 0.00 | 0.00 | 89 | 1016.5 |
| 20260901135834 | 81 | 57 | 0.0 | 2.0 | 0.00 | 0.00 | 0.00 | 89 | 1016.8 |
| 20260901135327 | 81 | 57 | 0.0 | 1.0 | 0.00 | 0.00 | 0.00 | 90 | 1016.8 |
| 20260901134841 | 80 | 57 | 0.0 | 1.0 | 0.00 | 0.00 | 0.00 | 91 | 1016.8 |
| 20260901134334 | 80 | 57 | 0.0 | 1.0 | 0.00 | 0.00 | 0.00 | 92 | 1016.6 |
| 20260901133827 | 80 | 253 | 0.0 | 0.0 | 0.00 | 0.00 | 0.00 | 92 | 1016.6 |
| 20260901133340 | 80 | 129 | 0.0 | 0.0 | 0.00 | 0.00 | 0.00 | 92 | 1016.6 |
| 20260901132834 | 79 | 129 | 0.0 | 0.0 | 0.00 | 0.00 | 0.00 | 93 | 1016.4 |
| 20260901132347 | 79 | 129 | 0.0 | 0.0 | 0.00 | 0.00 | 0.00 | 93 | 1016.4 |
| 20260901131858 | 79 | 129 | 0.0 | 0.0 | 0.00 | 0.00 | 0.00 | 93 | 1016.4 |
| 20260901131350 | 79 | 129 | 0.0 | 0.0 | 0.00 | 0.00 | 0.00 | 93 | 1016.3 |
| 20260901130825 | 79 | 129 | 0.0 | 0.0 | 0.00 | 0.00 | 0.00 | 94 | 1016.3 |
| 20260901130339 | 79 | 129 | 0.0 | 0.0 | 0.00 | 0.00 | 0.00 | 94 | 1016.3 |
| 20260901125829 | 79 | 129 | 0.0 | 0.0 | 0.00 | 0.00 | 0.00 | 94 | 1016.0 |
| 20260901125336 | 78 | 129 | 0.0 | 0.0 | 0.00 | 0.00 | 0.00 | 94 | 1016.0 |
| 20260901124829 | 78 | 129 | 0.0 | 0.0 | 0.00 | 0.00 | 0.00 | 94 | 1016.0 |
| 20260901124322 | 78 | 129 | 0.0 | 0.0 | 0.00 | 0.00 | 0.00 | 94 | 1015.9 |
| 20260901123835 | 78 | 129 | 0.0 | 0.0 | 0.00 | 0.00 | 0.00 | 94 | 1015.9 |
| 20260901123329 | 78 | 129 | 0.0 | 0.0 | 0.00 | 0.00 | 0.00 | 94 | 1015.9 |
| 20260901122843 | 78 | 129 | 0.0 | 0.0 | 0.00 | 0.00 | 0.00 | 94 | 1015.6 |
| 20260901122335 | 78 | 129 | 0.0 | 0.0 | 0.00 | 0.00 | 0.00 | 94 | 1015.6 |
| 20260901121832 | 78 | 129 | 0.0 | 0.0 | 0.00 | 0.00 | 0.00 | 94 | 1015.6 |
| 20260901121325 | 78 | 129 | 0.0 | 0.0 | 0.00 | 0.00 | 0.00 | 94 | 1015.4 |
| 20260901120837 | 78 | 129 | 0.0 | 0.0 | 0.00 | 0.00 | 0.00 | 94 | 1015.4 |
| 20260901120329 | 78 | 129 | 0.0 | 0.0 | 0.00 | 0.00 | 0.00 | 94 | 1015.4 |
| 20260901115822 | 78 | 129 | 0.0 | 0.0 | 0.00 | 0.00 | 0.00 | 94 | 1015.4 |
| 20260901115336 | 78 | 129 | 0.0 | 0.0 | 0.00 | 0.00 | 0.00 | 94 | 1015.4 |
| 20260901114826 | 78 | 129 | 0.0 | 0.0 | 0.00 | 0.00 | 0.00 | 94 | 1015.4 |
| 20260901114339 | 78 | 129 | 0.0 | 0.0 | 0.00 | 0.00 | 0.00 | 94 | 1015.4 |
| 20260901113832 | 78 | 129 | 0.0 | 0.0 | 0.00 | 0.00 | 0.00 | 93 | 1015.4 |
| 20260901113323 | 78 | 129 | 0.0 | 0.0 | 0.00 | 0.00 | 0.00 | 93 | 1015.4 |
| 20260901112837 | 78 | 129 | 0.0 | 0.0 | 0.00 | 0.00 | 0.00 | 93 | 1015.4 |
| 20260901112328 | 78 | 129 | 0.0 | 0.0 | 0.00 | 0.00 | 0.00 | 93 | 1015.4 |
| 20260901111844 | 78 | 129 | 0.0 | 0.0 | 0.00 | 0.00 | 0.00 | 93 | 1015.4 |
| 20260901111358 | 78 | 129 | 0.0 | 0.0 | 0.00 | 0.00 | 0.00 | 93 | 1015.4 |
| 20260901110828 | 78 | 129 | 0.0 | 0.0 | 0.00 | 0.00 | 0.00 | 93 | 1015.4 |
| 20260901110324 | 78 | 129 | 0.0 | 0.0 | 0.00 | 0.00 | 0.00 | 93 | 1015.4 |
| 20260901105836 | 78 | 129 | 0.0 | 0.0 | 0.00 | 0.00 | 0.00 | 93 | 1015.3 |
| 20260901105329 | 79 | 129 | 0.0 | 0.0 | 0.00 | 0.00 | 0.00 | 93 | 1015.3 |
| 20260901104825 | 79 | 129 | 0.0 | 0.0 | 0.00 | 0.00 | 0.00 | 93 | 1015.3 |
| 20260901104340 | 79 | 129 | 0.0 | 0.0 | 0.00 | 0.00 | 0.00 | 93 | 1015.2 |
| 20260901103850 | 79 | 129 | 0.0 | 0.0 | 0.00 | 0.00 | 0.00 | 93 | 1015.2 |
| 20260901103339 | 79 | 129 | 0.0 | 0.0 | 0.00 | 0.00 | 0.00 | 93 | 1015.2 |
| 20260901102830 | 79 | 129 | 0.0 | 0.0 | 0.00 | 0.00 | 0.00 | 93 | 1015.1 |
| 20260901102323 | 79 | 129 | 0.0 | 0.0 | 0.00 | 0.00 | 0.00 | 92 | 1015.1 |
| 20260901101837 | 79 | 129 | 0.0 | 0.0 | 0.00 | 0.00 | 0.00 | 92 | 1015.1 |
| 20260901101330 | 79 | 129 | 0.0 | 0.0 | 0.00 | 0.00 | 0.00 | 92 | 1015.2 |
| 20260901100844 | 79 | 129 | 0.0 | 0.0 | 0.00 | 0.00 | 0.00 | 92 | 1015.2 |
| 20260901100356 | 79 | 129 | 0.0 | 0.0 | 0.00 | 0.00 | 0.00 | 92 | 1015.2 |
| 20260901095904 | 79 | 129 | 0.0 | 0.0 | 0.00 | 0.00 | 0.00 | 92 | 1015.2 |